| time (UTC) | temp F | wind direction | speed MPH | gust MPH | rain 1hr in | rain 24hr in | rain mn in | humidity % | barometer mb |
| 20260509132320 | 63 | 44 | 0.0 | 0.0 | 0.24 | 0.72 | 0.72 | 99 | 1012.1 |
| 20260509131816 | 63 | 60 | 0.0 | 0.0 | 0.24 | 0.70 | 0.70 | 99 | 1012.2 |
| 20260509131313 | 63 | 70 | 0.0 | 0.0 | 0.19 | 0.68 | 0.68 | 99 | 1012.3 |
| 20260509130809 | 63 | 73 | 0.0 | 1.0 | 0.19 | 0.66 | 0.66 | 99 | 1012.6 |
| 20260509130305 | 63 | 32 | 0.0 | 0.0 | 0.24 | 0.65 | 0.65 | 99 | 1013.0 |
| 20260509125802 | 63 | 357 | 1.0 | 1.0 | 0.24 | 0.63 | 0.63 | 99 | 1013.2 |
| 20260509125259 | 63 | 36 | 0.0 | 0.0 | 0.24 | 0.61 | 0.61 | 99 | 1013.3 |
| 20260509124755 | 63 | 352 | 0.0 | 0.0 | 0.17 | 0.59 | 0.59 | 99 | 1013.4 |
| 20260509124251 | 63 | 40 | 0.0 | 0.0 | 0.24 | 0.57 | 0.57 | 99 | 1013.1 |
| 20260509123750 | 63 | 1 | 1.0 | 2.0 | 0.31 | 0.56 | 0.56 | 99 | 1013.3 |
| 20260509123247 | 63 | 2 | 1.0 | 1.0 | 0.24 | 0.53 | 0.53 | 99 | 1013.7 |
| 20260509122742 | 63 | 51 | 0.0 | 0.0 | 0.19 | 0.51 | 0.51 | 99 | 1013.9 |
| 20260509122239 | 63 | 70 | 0.0 | 0.0 | 0.19 | 0.49 | 0.49 | 99 | 1013.7 |
| 20260509121736 | 63 | 71 | 0.0 | 0.0 | 0.24 | 0.48 | 0.48 | 99 | 1013.5 |
| 20260509121233 | 63 | 91 | 0.0 | 0.0 | 0.31 | 0.46 | 0.46 | 99 | 1013.5 |
| 20260509120732 | 63 | 93 | 2.0 | 2.0 | 0.31 | 0.44 | 0.44 | 99 | 1013.2 |
| 20260509120229 | 63 | 330 | 2.0 | 2.0 | 0.64 | 0.41 | 0.41 | 99 | 1013.0 |
| 20260509115727 | 63 | 331 | 5.0 | 6.0 | 0.59 | 0.39 | 0.39 | 99 | 1013.0 |
| 20260509115224 | 63 | 160 | 1.0 | 2.0 | 0.14 | 0.30 | 0.30 | 99 | 1012.9 |
| 20260509114722 | 63 | 348 | 2.0 | 3.0 | 0.19 | 0.29 | 0.29 | 99 | 1013.1 |
| 20260509114221 | 63 | 336 | 3.0 | 5.0 | 0.40 | 0.28 | 0.28 | 99 | 1013.1 |
| 20260509113719 | 64 | 331 | 3.0 | 5.0 | 0.78 | 0.26 | 0.26 | 99 | 1012.8 |
| 20260509113216 | 64 | 329 | 3.0 | 3.0 | 0.97 | 0.21 | 0.21 | 99 | 1013.0 |
| 20260509112713 | 64 | 35 | 5.0 | 6.0 | 0.59 | 0.13 | 0.13 | 99 | 1013.0 |
| 20260509112209 | 64 | 9 | 5.0 | 9.0 | 0.19 | 0.05 | 0.05 | 99 | 1013.5 |
| 20260509111706 | 64 | 348 | 3.0 | 3.0 | 0.07 | 0.03 | 0.03 | 99 | 1011.8 |
| 20260509111203 | 64 | 52 | 0.0 | 0.0 | 0.05 | 0.02 | 0.02 | 99 | 1010.9 |
| 20260509110701 | 64 | 20 | 0.0 | 0.0 | 0.05 | 0.02 | 0.02 | 99 | 1010.9 |
| 20260509110157 | 64 | 45 | 0.0 | 0.0 | 0.00 | 0.01 | 0.01 | 99 | 1011.1 |
| 20260509105655 | 64 | 45 | 0.0 | 0.0 | 0.00 | 0.01 | 0.01 | 99 | 1010.9 |
| 20260509105152 | 64 | 46 | 0.0 | 0.0 | 0.00 | 0.01 | 0.01 | 99 | 1011.0 |
| 20260509104649 | 64 | 47 | 0.0 | 0.0 | 0.00 | 0.01 | 0.01 | 99 | 1010.4 |
| 20260509104146 | 64 | 9 | 0.0 | 0.0 | 0.07 | 0.01 | 0.01 | 99 | 1010.9 |
| 20260509103644 | 64 | 334 | 1.0 | 1.0 | 0.07 | 0.01 | 0.01 | 99 | 1010.9 |
| 20260509103142 | 64 | 8 | 0.0 | 0.0 | 0.00 | 0.00 | 0.00 | 99 | 1010.6 |
| 20260509102640 | 64 | 41 | 0.0 | 0.0 | 0.00 | 0.00 | 0.00 | 99 | 1010.5 |
| 20260509102136 | 64 | 9 | 0.0 | 0.0 | 0.00 | 0.00 | 0.00 | 99 | 1010.6 |
| 20260509101632 | 64 | 342 | 2.0 | 2.0 | 0.00 | 0.00 | 0.00 | 99 | 1010.5 |
| 20260509101129 | 64 | 41 | 0.0 | 1.0 | 0.00 | 0.00 | 0.00 | 99 | 1010.5 |
| 20260509100627 | 64 | 101 | 1.0 | 1.0 | 0.00 | 0.00 | 0.00 | 99 | 1010.2 |
| 20260509100124 | 64 | 42 | 0.0 | 0.0 | 0.00 | 0.00 | 0.00 | 99 | 1010.3 |
| 20260509095620 | 64 | 22 | 0.0 | 0.0 | 0.00 | 0.00 | 0.00 | 99 | 1010.2 |
| 20260509095118 | 64 | 28 | 0.0 | 0.0 | 0.00 | 0.00 | 0.00 | 99 | 1010.4 |
| 20260509094614 | 64 | 352 | 0.0 | 1.0 | 0.00 | 0.00 | 0.00 | 99 | 1010.1 |
| 20260509094111 | 64 | 3 | 1.0 | 1.0 | 0.00 | 0.00 | 0.00 | 99 | 1009.9 |
| 20260509093610 | 64 | 7 | 0.0 | 0.0 | 0.00 | 0.00 | 0.00 | 99 | 1009.8 |
| 20260509093106 | 64 | 36 | 0.0 | 0.0 | 0.00 | 0.00 | 0.00 | 99 | 1009.9 |
| 20260509092604 | 64 | 57 | 0.0 | 0.0 | 0.00 | 0.00 | 0.00 | 99 | 1009.8 |
| 20260509092102 | 64 | 30 | 0.0 | 0.0 | 0.00 | 0.00 | 0.00 | 99 | 1009.9 |
| 20260509091600 | 64 | 52 | 0.0 | 0.0 | 0.00 | 0.00 | 0.00 | 99 | 1010.0 |
| 20260509091056 | 64 | 53 | 0.0 | 0.0 | 0.00 | 0.00 | 0.00 | 99 | 1010.0 |
| 20260509090554 | 64 | 28 | 0.0 | 0.0 | 0.00 | 0.00 | 0.00 | 99 | 1010.1 |
| 20260509090051 | 64 | 21 | 0.0 | 0.0 | 0.00 | 0.00 | 0.00 | 99 | 1010.0 |
| 20260509085548 | 64 | 52 | 0.0 | 0.0 | 0.00 | 0.00 | 0.00 | 99 | 1010.0 |
| 20260509085044 | 64 | 45 | 0.0 | 0.0 | 0.00 | 0.00 | 0.00 | 99 | 1009.7 |
| 20260509084541 | 64 | 32 | 0.0 | 0.0 | 0.00 | 0.00 | 0.00 | 99 | 1010.0 |
| 20260509084038 | 64 | 43 | 0.0 | 0.0 | 0.00 | 0.00 | 0.00 | 99 | 1010.0 |
| 20260509083536 | 64 | 355 | 0.0 | 1.0 | 0.00 | 0.00 | 0.00 | 99 | 1010.2 |
| 20260509083032 | 64 | 359 | 0.0 | 1.0 | 0.00 | 0.00 | 0.00 | 99 | 1010.2 |
| 20260509082530 | 64 | 15 | 0.0 | 0.0 | 0.00 | 0.00 | 0.00 | 99 | 1010.0 |
| 20260509082027 | 64 | 49 | 0.0 | 0.0 | 0.00 | 0.00 | 0.00 | 99 | 1010.5 |
| 20260509081524 | 64 | 45 | 0.0 | 0.0 | 0.00 | 0.00 | 0.00 | 99 | 1010.4 |
| 20260509081021 | 64 | 51 | 0.0 | 0.0 | 0.00 | 0.00 | 0.00 | 99 | 1010.5 |
| 20260509080519 | 64 | 51 | 0.0 | 0.0 | 0.00 | 0.00 | 0.00 | 99 | 1010.8 |
| 20260509080017 | 64 | 50 | 0.0 | 0.0 | 0.00 | 0.00 | 0.00 | 99 | 1010.9 |
| 20260509075513 | 64 | 51 | 0.0 | 0.0 | 0.00 | 0.00 | 0.00 | 99 | 1010.9 |
| 20260509075012 | 64 | 20 | 0.0 | 0.0 | 0.00 | 0.00 | 0.00 | 99 | 1011.0 |
| 20260509074508 | 64 | 47 | 0.0 | 0.0 | 0.00 | 0.00 | 0.00 | 99 | 1011.1 |
| 20260509074005 | 64 | 53 | 0.0 | 0.0 | 0.00 | 0.00 | 0.00 | 99 | 1010.8 |
| 20260509073501 | 64 | 32 | 0.0 | 0.0 | 0.00 | 0.00 | 0.00 | 99 | 1010.9 |
| 20260509072958 | 64 | 5 | 0.0 | 1.0 | 0.00 | 0.00 | 0.00 | 99 | 1011.0 |
| 20260509072455 | 64 | 48 | 0.0 | 0.0 | 0.00 | 0.00 | 0.00 | 99 | 1010.7 |
| 20260509071951 | 64 | 60 | 0.0 | 0.0 | 0.00 | 0.00 | 0.00 | 99 | 1011.1 |
| 20260509071448 | 64 | 49 | 0.0 | 0.0 | 0.00 | 0.00 | 0.00 | 99 | 1011.3 |
| 20260509070946 | 64 | 48 | 0.0 | 0.0 | 0.00 | 0.00 | 0.00 | 99 | 1011.5 |
| 20260509070442 | 64 | 47 | 0.0 | 0.0 | 0.00 | 0.00 | 0.00 | 99 | 1011.2 |
| 20260509065938 | 64 | 33 | 0.0 | 0.0 | 0.00 | 0.00 | 0.00 | 99 | 1010.9 |
| 20260509065434 | 64 | 37 | 0.0 | 0.0 | 0.00 | 0.00 | 0.00 | 99 | 1010.9 |
| 20260509064930 | 64 | 64 | 0.0 | 0.0 | 0.00 | 0.00 | 0.00 | 99 | 1010.9 |
| 20260509064428 | 64 | 48 | 0.0 | 0.0 | 0.00 | 0.00 | 0.00 | 99 | 1011.1 |
| 20260509063926 | 64 | 60 | 0.0 | 0.0 | 0.00 | 0.00 | 0.00 | 99 | 1011.2 |
| 20260509063421 | 64 | 359 | 1.0 | 1.0 | 0.00 | 0.00 | 0.00 | 99 | 1011.4 |
| 20260509062919 | 64 | 218 | 1.0 | 1.0 | 0.00 | 0.00 | 0.00 | 99 | 1011.3 |
| 20260509062416 | 64 | 27 | 0.0 | 0.0 | 0.00 | 0.00 | 0.00 | 99 | 1011.3 |
| 20260509061913 | 64 | 52 | 0.0 | 0.0 | 0.00 | 0.00 | 0.00 | 99 | 1010.8 |
| 20260509061411 | 64 | 45 | 0.0 | 0.0 | 0.00 | 0.00 | 0.00 | 99 | 1011.3 |
| 20260509060908 | 64 | 7 | 0.0 | 0.0 | 0.00 | 0.00 | 0.00 | 99 | 1011.7 |
| 20260509060405 | 64 | 354 | 1.0 | 1.0 | 0.00 | 0.00 | 0.00 | 99 | 1011.6 |
| 20260509055900 | 64 | 52 | 0.0 | 0.0 | 0.00 | 0.00 | 0.00 | 99 | 1011.7 |
| 20260509055355 | 64 | 5 | 0.0 | 0.0 | 0.00 | 0.00 | 0.00 | 99 | 1011.5 |
| 20260509054853 | 64 | 33 | 0.0 | 0.0 | 0.00 | 0.00 | 0.00 | 99 | 1011.6 |
| 20260509054349 | 64 | 56 | 0.0 | 0.0 | 0.00 | 0.00 | 0.00 | 99 | 1011.4 |
| 20260509053848 | 64 | 52 | 0.0 | 0.0 | 0.00 | 0.00 | 0.00 | 99 | 1011.7 |
| 20260509053345 | 64 | 50 | 0.0 | 0.0 | 0.00 | 0.00 | 0.00 | 99 | 1011.9 |
| 20260509052843 | 64 | 54 | 0.0 | 0.0 | 0.00 | 0.00 | 0.00 | 99 | 1011.8 |
| 20260509052340 | 64 | 46 | 0.0 | 0.0 | 0.00 | 0.00 | 0.00 | 99 | 1011.7 |
| 20260509051838 | 64 | 37 | 0.0 | 0.0 | 0.00 | 0.00 | 0.00 | 99 | 1012.0 |
| 20260509051336 | 64 | 31 | 0.0 | 0.0 | 0.00 | 0.00 | 0.00 | 99 | 1012.0 |
| 20260509050832 | 63 | 9 | 0.0 | 0.0 | 0.00 | 0.00 | 0.00 | 99 | 1012.0 |
| 20260509050329 | 63 | 31 | 0.0 | 0.0 | 0.00 | 0.00 | 0.00 | 99 | 1011.8 |
| 20260509045826 | 63 | 51 | 0.0 | 0.0 | 0.00 | 0.87 | 0.87 | 99 | 1011.8 |
| 20260509045323 | 63 | 68 | 0.0 | 0.0 | 0.00 | 0.87 | 0.87 | 99 | 1011.6 |
| 20260509044820 | 63 | 53 | 0.0 | 0.0 | 0.00 | 0.87 | 0.87 | 99 | 1011.7 |
| 20260509044317 | 63 | 32 | 0.0 | 0.0 | 0.00 | 0.87 | 0.87 | 99 | 1011.5 |
| 20260509043814 | 63 | 49 | 0.0 | 0.0 | 0.00 | 0.87 | 0.87 | 99 | 1011.4 |
| 20260509043310 | 63 | 49 | 0.0 | 0.0 | 0.00 | 0.87 | 0.87 | 99 | 1011.4 |
| 20260509042806 | 63 | 54 | 0.0 | 0.0 | 0.00 | 0.87 | 0.87 | 99 | 1011.4 |
| 20260509042306 | 63 | 22 | 0.0 | 0.0 | 0.00 | 0.87 | 0.87 | 99 | 1011.6 |
| 20260509041759 | 63 | 56 | 0.0 | 0.0 | 0.00 | 0.87 | 0.87 | 99 | 1011.5 |
| 20260509041256 | 63 | 74 | 0.0 | 0.0 | 0.00 | 0.87 | 0.87 | 99 | 1011.5 |
| 20260509040754 | 63 | 64 | 0.0 | 0.0 | 0.00 | 0.87 | 0.87 | 99 | 1011.7 |
| 20260509040251 | 63 | 61 | 0.0 | 0.0 | 0.00 | 0.87 | 0.87 | 99 | 1012.0 |
| 20260509035748 | 63 | 46 | 0.0 | 0.0 | 0.00 | 0.87 | 0.87 | 99 | 1012.0 |
| 20260509035245 | 63 | 47 | 0.0 | 0.0 | 0.00 | 0.87 | 0.87 | 99 | 1011.9 |
| 20260509034742 | 63 | 47 | 0.0 | 0.0 | 0.00 | 0.87 | 0.87 | 99 | 1011.8 |
| 20260509034240 | 63 | 56 | 0.0 | 0.0 | 0.00 | 0.87 | 0.87 | 99 | 1011.8 |
| 20260509033736 | 63 | 59 | 0.0 | 0.0 | 0.00 | 0.87 | 0.87 | 99 | 1012.1 |
| 20260509033233 | 63 | 64 | 0.0 | 0.0 | 0.00 | 0.87 | 0.87 | 99 | 1012.0 |
| 20260509032730 | 63 | 36 | 0.0 | 0.0 | 0.00 | 0.87 | 0.87 | 99 | 1012.1 |
| 20260509032227 | 63 | 52 | 0.0 | 0.0 | 0.00 | 0.87 | 0.87 | 99 | 1012.4 |
| 20260509031725 | 63 | 37 | 0.0 | 0.0 | 0.00 | 0.87 | 0.87 | 99 | 1012.2 |
| 20260509031222 | 63 | 71 | 0.0 | 0.0 | 0.00 | 0.87 | 0.87 | 99 | 1012.0 |
| 20260509030720 | 63 | 53 | 0.0 | 0.0 | 0.00 | 0.87 | 0.87 | 99 | 1012.0 |
| 20260509030217 | 63 | 52 | 0.0 | 0.0 | 0.00 | 0.87 | 0.87 | 99 | 1012.0 |
| 20260509025714 | 63 | 71 | 0.0 | 1.0 | 0.00 | 0.87 | 0.87 | 99 | 1012.0 |
| 20260509025210 | 63 | 37 | 0.0 | 0.0 | 0.00 | 0.87 | 0.87 | 99 | 1011.9 |
| 20260509024705 | 63 | 56 | 0.0 | 0.0 | 0.00 | 0.87 | 0.87 | 99 | 1011.8 |
| 20260509024201 | 63 | 62 | 0.0 | 0.0 | 0.00 | 0.87 | 0.87 | 99 | 1011.9 |
| 20260509023659 | 63 | 9 | 0.0 | 0.0 | 0.00 | 0.87 | 0.87 | 99 | 1011.7 |
| 20260509023156 | 63 | 338 | 2.0 | 2.0 | 0.00 | 0.87 | 0.87 | 99 | 1011.7 |
| 20260509022652 | 64 | 5 | 1.0 | 2.0 | 0.00 | 0.87 | 0.87 | 99 | 1011.8 |
| 20260509022150 | 64 | 13 | 0.0 | 0.0 | 0.00 | 0.87 | 0.87 | 99 | 1011.9 |
| 20260509021646 | 64 | 347 | 0.0 | 0.0 | 0.00 | 0.87 | 0.87 | 99 | 1011.8 |
| 20260509021144 | 64 | 76 | 0.0 | 0.0 | 0.00 | 0.87 | 0.87 | 99 | 1011.6 |
| 20260509020642 | 64 | 24 | 0.0 | 0.0 | 0.00 | 0.87 | 0.87 | 99 | 1011.8 |
| 20260509020138 | 64 | 5 | 0.0 | 0.0 | 0.00 | 0.87 | 0.87 | 99 | 1012.0 |
| 20260509015637 | 64 | 358 | 0.0 | 1.0 | 0.00 | 0.87 | 0.87 | 99 | 1011.1 |
| 20260509015135 | 63 | 40 | 0.0 | 0.0 | 0.00 | 0.87 | 0.87 | 99 | 1011.0 |
| 20260509014631 | 63 | 74 | 0.0 | 1.0 | 0.00 | 0.87 | 0.87 | 99 | 1011.1 |
| 20260509014127 | 64 | 346 | 0.0 | 0.0 | 0.00 | 0.87 | 0.87 | 99 | 1011.6 |
| 20260509013625 | 64 | 4 | 0.0 | 1.0 | 0.00 | 0.87 | 0.87 | 99 | 1011.4 |
| 20260509013120 | 63 | 17 | 0.0 | 0.0 | 0.00 | 0.87 | 0.87 | 99 | 1011.2 |
| 20260509012617 | 63 | 64 | 0.0 | 0.0 | 0.00 | 0.87 | 0.87 | 99 | 1011.1 |
| 20260509012114 | 63 | 42 | 0.0 | 0.0 | 0.00 | 0.87 | 0.87 | 99 | 1011.3 |
| 20260509011612 | 63 | 42 | 0.0 | 0.0 | 0.00 | 0.87 | 0.87 | 99 | 1011.1 |
| 20260509011108 | 63 | 34 | 0.0 | 0.0 | 0.00 | 0.87 | 0.87 | 99 | 1011.3 |
| 20260509010606 | 64 | 70 | 0.0 | 0.0 | 0.00 | 0.87 | 0.87 | 99 | 1011.1 |
| 20260509005601 | 64 | 252 | 0.0 | 0.0 | 0.00 | 0.87 | 0.87 | 99 | 1011.6 |
| 20260509005056 | 64 | 5 | 0.0 | 0.0 | 0.00 | 0.87 | 0.87 | 99 | 1011.6 |
| 20260509004553 | 64 | 60 | 0.0 | 1.0 | 0.00 | 0.87 | 0.87 | 99 | 1011.7 |
| 20260509004049 | 64 | 36 | 0.0 | 0.0 | 0.00 | 0.87 | 0.87 | 99 | 1011.6 |
| 20260509003548 | 64 | 70 | 0.0 | 0.0 | 0.00 | 0.87 | 0.87 | 99 | 1010.9 |
| 20260509003045 | 64 | 63 | 0.0 | 0.0 | 0.00 | 0.87 | 0.87 | 99 | 1011.6 |
| 20260509002542 | 64 | 49 | 0.0 | 0.0 | 0.00 | 0.87 | 0.87 | 99 | 1012.0 |
| 20260509002040 | 64 | 43 | 0.0 | 0.0 | 0.00 | 0.87 | 0.87 | 99 | 1011.8 |
| 20260509001537 | 64 | 44 | 0.0 | 0.0 | 0.00 | 0.87 | 0.87 | 99 | 1012.0 |
| 20260509001032 | 64 | 59 | 0.0 | 0.0 | 0.00 | 0.87 | 0.87 | 99 | 1011.7 |
| 20260509000531 | 64 | 59 | 0.0 | 0.0 | 0.00 | 0.87 | 0.87 | 99 | 1011.6 |
| 20260509000027 | 64 | 50 | 0.0 | 0.0 | 0.00 | 0.87 | 0.87 | 99 | 1011.8 |
| 20260508235525 | 64 | 62 | 0.0 | 0.0 | 0.00 | 0.87 | 0.87 | 99 | 1011.6 |
| 20260508235021 | 64 | 48 | 0.0 | 0.0 | 0.00 | 0.87 | 0.87 | 99 | 1011.6 |
| 20260508234519 | 64 | 68 | 0.0 | 0.0 | 0.00 | 0.87 | 0.87 | 99 | 1011.7 |
| 20260508234015 | 64 | 46 | 0.0 | 0.0 | 0.00 | 0.87 | 0.87 | 99 | 1011.8 |
| 20260508233515 | 64 | 45 | 0.0 | 0.0 | 0.00 | 0.87 | 0.87 | 99 | 1011.9 |
| 20260508233012 | 64 | 62 | 0.0 | 0.0 | 0.00 | 0.87 | 0.87 | 99 | 1011.9 |
| 20260508232508 | 64 | 65 | 0.0 | 0.0 | 0.00 | 0.87 | 0.87 | 99 | 1012.0 |
| 20260508232005 | 64 | 52 | 0.0 | 0.0 | 0.00 | 0.87 | 0.87 | 99 | 1011.9 |
| 20260508231503 | 64 | 54 | 0.0 | 0.0 | 0.00 | 0.87 | 0.87 | 99 | 1011.7 |
| 20260508231000 | 64 | 49 | 0.0 | 0.0 | 0.00 | 0.87 | 0.87 | 99 | 1011.9 |
| 20260508230456 | 64 | 54 | 0.0 | 0.0 | 0.00 | 0.87 | 0.87 | 99 | 1011.9 |
| 20260508225953 | 64 | 55 | 0.0 | 0.0 | 0.00 | 0.87 | 0.87 | 99 | 1012.2 |
| 20260508225450 | 64 | 20 | 0.0 | 0.0 | 0.00 | 0.87 | 0.87 | 99 | 1012.1 |
| 20260508224947 | 64 | 35 | 0.0 | 0.0 | 0.00 | 0.87 | 0.87 | 99 | 1011.8 |
| 20260508224445 | 64 | 359 | 0.0 | 0.0 | 0.00 | 0.87 | 0.87 | 99 | 1011.9 |
| 20260508223942 | 64 | 15 | 0.0 | 0.0 | 0.00 | 0.87 | 0.87 | 99 | 1011.5 |
| 20260508223440 | 64 | 48 | 0.0 | 0.0 | 0.00 | 0.87 | 0.87 | 99 | 1011.7 |
| 20260508222937 | 64 | 345 | 0.0 | 0.0 | 0.00 | 0.87 | 0.87 | 99 | 1011.7 |
| 20260508222434 | 64 | 302 | 0.0 | 0.0 | 0.00 | 0.87 | 0.87 | 99 | 1011.6 |
| 20260508221931 | 64 | 336 | 1.0 | 1.0 | 0.00 | 0.87 | 0.87 | 99 | 1011.4 |
| 20260508221427 | 64 | 14 | 0.0 | 0.0 | 0.00 | 0.87 | 0.87 | 99 | 1011.3 |
| 20260508220923 | 63 | 59 | 0.0 | 0.0 | 0.00 | 0.87 | 0.87 | 99 | 1011.3 |
| 20260508220420 | 63 | 354 | 0.0 | 0.0 | 0.00 | 0.87 | 0.87 | 99 | 1011.5 |
| 20260508215916 | 63 | 85 | 0.0 | 0.0 | 0.05 | 0.87 | 0.87 | 99 | 1011.6 |
| 20260508215413 | 63 | 242 | 0.0 | 1.0 | 0.12 | 0.87 | 0.87 | 99 | 1011.9 |
| 20260508214909 | 63 | 317 | 2.0 | 2.0 | 0.12 | 0.86 | 0.86 | 99 | 1010.5 |
| 20260508214407 | 63 | 79 | 0.0 | 0.0 | 0.05 | 0.85 | 0.85 | 99 | 1011.1 |
| 20260508213903 | 63 | 67 | 0.0 | 0.0 | 0.07 | 0.84 | 0.84 | 99 | 1012.1 |
| 20260508213401 | 63 | 8 | 0.0 | 0.0 | 0.07 | 0.84 | 0.84 | 99 | 1012.0 |
| 20260508212856 | 63 | 13 | 0.0 | 0.0 | 0.00 | 0.83 | 0.83 | 99 | 1012.5 |
| 20260508212353 | 63 | 37 | 0.0 | 0.0 | 0.05 | 0.83 | 0.83 | 99 | 1012.4 |
| 20260508211848 | 63 | 270 | 0.0 | 0.0 | 0.05 | 0.83 | 0.83 | 99 | 1012.7 |
| 20260508211344 | 63 | 314 | 1.0 | 1.0 | 0.00 | 0.82 | 0.82 | 99 | 1012.5 |
| 20260508210842 | 63 | 343 | 0.0 | 0.0 | 0.07 | 0.82 | 0.82 | 99 | 1012.1 |
| 20260508210338 | 63 | 22 | 0.0 | 0.0 | 0.12 | 0.82 | 0.82 | 99 | 1012.1 |
| 20260508205835 | 63 | 298 | 2.0 | 2.0 | 0.12 | 0.81 | 0.81 | 99 | 1011.8 |
| 20260508205332 | 63 | 85 | 1.0 | 1.0 | 0.19 | 0.80 | 0.80 | 99 | 1012.0 |
| 20260508204828 | 63 | 67 | 0.0 | 0.0 | 0.31 | 0.79 | 0.79 | 99 | 1013.0 |
| 20260508204325 | 63 | 47 | 0.0 | 0.0 | 0.31 | 0.77 | 0.77 | 99 | 1013.2 |
| 20260508203821 | 62 | 62 | 0.0 | 0.0 | 0.24 | 0.75 | 0.75 | 99 | 1013.9 |
| 20260508203317 | 62 | 66 | 0.0 | 0.0 | 0.24 | 0.72 | 0.72 | 99 | 1014.2 |
| 20260508202813 | 62 | 69 | 0.0 | 0.0 | 0.31 | 0.71 | 0.71 | 99 | 1014.4 |
| 20260508202311 | 62 | 93 | 0.0 | 1.0 | 0.19 | 0.68 | 0.68 | 99 | 1014.4 |
| 20260508201808 | 62 | 25 | 0.0 | 0.0 | 0.12 | 0.66 | 0.66 | 99 | 1014.5 |
| 20260508201305 | 62 | 46 | 0.0 | 0.0 | 0.12 | 0.65 | 0.65 | 99 | 1014.5 |
| 20260508200801 | 62 | 6 | 0.0 | 0.0 | 0.19 | 0.64 | 0.64 | 99 | 1014.3 |
| 20260508200257 | 62 | 62 | 0.0 | 0.0 | 0.24 | 0.63 | 0.63 | 99 | 1014.1 |
| 20260508195754 | 62 | 55 | 0.0 | 0.0 | 0.24 | 0.61 | 0.61 | 99 | 1014.7 |
| 20260508195250 | 62 | 355 | 0.0 | 0.0 | 0.24 | 0.59 | 0.59 | 99 | 1014.3 |
| 20260508194746 | 62 | 56 | 0.0 | 0.0 | 0.24 | 0.57 | 0.57 | 99 | 1014.4 |
| 20260508194244 | 62 | 91 | 0.0 | 0.0 | 0.19 | 0.55 | 0.55 | 99 | 1014.4 |
| 20260508193741 | 62 | 60 | 0.0 | 0.0 | 0.19 | 0.53 | 0.53 | 99 | 1014.7 |
| 20260508193237 | 62 | 48 | 0.0 | 0.0 | 0.17 | 0.52 | 0.52 | 99 | 1015.1 |
| 20260508192734 | 62 | 61 | 0.0 | 0.0 | 0.12 | 0.50 | 0.50 | 99 | 1014.8 |
| 20260508192231 | 62 | 71 | 1.0 | 2.0 | 0.19 | 0.49 | 0.49 | 99 | 1014.6 |
| 20260508191728 | 62 | 80 | 0.0 | 0.0 | 0.17 | 0.48 | 0.48 | 99 | 1014.4 |
| 20260508191225 | 62 | 71 | 0.0 | 0.0 | 0.12 | 0.46 | 0.46 | 99 | 1013.9 |
| 20260508190722 | 62 | 52 | 0.0 | 0.0 | 0.12 | 0.45 | 0.45 | 99 | 1013.7 |
| 20260508190218 | 62 | 35 | 0.0 | 0.0 | 0.05 | 0.44 | 0.44 | 99 | 1013.8 |
| 20260508185715 | 62 | 58 | 0.0 | 0.0 | 0.07 | 0.43 | 0.43 | 99 | 1013.6 |
| 20260508185213 | 62 | 355 | 3.0 | 3.0 | 0.14 | 0.43 | 0.43 | 99 | 1013.7 |
| 20260508184710 | 62 | 333 | 0.0 | 1.0 | 0.12 | 0.42 | 0.42 | 99 | 1013.5 |
| 20260508184207 | 62 | 4 | 1.0 | 1.0 | 0.12 | 0.41 | 0.41 | 99 | 1013.3 |
| 20260508183703 | 62 | 353 | 0.0 | 0.0 | 0.12 | 0.40 | 0.40 | 99 | 1013.1 |
| 20260508183200 | 62 | 44 | 1.0 | 2.0 | 0.12 | 0.39 | 0.39 | 99 | 1013.6 |
| 20260508182655 | 62 | 356 | 2.0 | 2.0 | 0.19 | 0.38 | 0.38 | 99 | 1013.5 |
| 20260508182152 | 62 | 45 | 0.0 | 0.0 | 0.12 | 0.37 | 0.37 | 99 | 1014.0 |
| 20260508181648 | 62 | 52 | 1.0 | 1.0 | 0.05 | 0.35 | 0.35 | 99 | 1014.3 |
| 20260508181145 | 62 | 53 | 0.0 | 0.0 | 0.12 | 0.35 | 0.35 | 99 | 1014.5 |
| 20260508180642 | 62 | 76 | 0.0 | 0.0 | 0.12 | 0.34 | 0.34 | 99 | 1014.5 |
| 20260508180139 | 62 | 55 | 0.0 | 0.0 | 0.17 | 0.33 | 0.33 | 99 | 1014.8 |
| 20260508175636 | 62 | 43 | 0.0 | 0.0 | 0.12 | 0.32 | 0.32 | 99 | 1015.3 |
| 20260508175132 | 62 | 59 | 0.0 | 0.0 | 0.07 | 0.30 | 0.30 | 99 | 1014.9 |
| 20260508174630 | 62 | 54 | 0.0 | 0.0 | 0.07 | 0.30 | 0.30 | 99 | 1015.2 |
| 20260508174126 | 62 | 75 | 0.0 | 0.0 | 0.07 | 0.29 | 0.29 | 99 | 1015.5 |
| 20260508173623 | 62 | 15 | 0.0 | 0.0 | 0.19 | 0.29 | 0.29 | 99 | 1016.0 |
| 20260508173119 | 62 | 72 | 0.0 | 0.0 | 0.24 | 0.28 | 0.28 | 99 | 1015.9 |
| 20260508172617 | 62 | 59 | 0.0 | 0.0 | 0.28 | 0.26 | 0.26 | 99 | 1016.1 |
| 20260508172113 | 62 | 76 | 0.0 | 0.0 | 0.28 | 0.24 | 0.24 | 99 | 1016.2 |
| 20260508171610 | 62 | 78 | 0.0 | 0.0 | 0.19 | 0.21 | 0.21 | 99 | 1016.0 |
| 20260508171106 | 62 | 52 | 0.0 | 0.0 | 0.12 | 0.19 | 0.19 | 99 | 1016.1 |
| 20260508170604 | 62 | 24 | 0.0 | 1.0 | 0.19 | 0.18 | 0.18 | 99 | 1015.9 |
| 20260508170101 | 62 | 44 | 2.0 | 3.0 | 0.19 | 0.17 | 0.17 | 99 | 1015.9 |
| 20260508165558 | 62 | 330 | 2.0 | 3.0 | 0.12 | 0.15 | 0.15 | 99 | 1016.2 |
| 20260508165055 | 62 | 9 | 1.0 | 2.0 | 0.12 | 0.14 | 0.14 | 99 | 1016.1 |
| 20260508164551 | 62 | 29 | 0.0 | 0.0 | 0.12 | 0.13 | 0.13 | 99 | 1015.9 |
| 20260508164048 | 62 | 336 | 1.0 | 1.0 | 0.12 | 0.12 | 0.12 | 99 | 1015.5 |
| 20260508163546 | 62 | 357 | 1.0 | 1.0 | 0.12 | 0.11 | 0.11 | 99 | 1015.2 |
| 20260508163042 | 62 | 48 | 1.0 | 2.0 | 0.12 | 0.10 | 0.10 | 99 | 1015.3 |
| 20260508162539 | 62 | 3 | 2.0 | 2.0 | 0.17 | 0.09 | 0.09 | 99 | 1015.6 |
| 20260508162037 | 62 | 342 | 2.0 | 2.0 | 0.24 | 0.08 | 0.08 | 99 | 1015.8 |
| 20260508161533 | 62 | 30 | 0.0 | 0.0 | 0.19 | 0.06 | 0.06 | 99 | 1016.2 |
| 20260508161030 | 62 | 335 | 1.0 | 2.0 | 0.14 | 0.04 | 0.04 | 99 | 1016.2 |
| 20260508160529 | 63 | 103 | 0.0 | 1.0 | 0.12 | 0.03 | 0.03 | 99 | 1016.1 |
| 20260508160025 | 63 | 346 | 2.0 | 2.0 | 0.12 | 0.02 | 0.02 | 98 | 1016.5 |
| 20260508155522 | 63 | 345 | 1.0 | 1.0 | 0.07 | 0.01 | 0.01 | 97 | 1016.1 |
| 20260508155019 | 64 | 47 | 0.0 | 0.0 | 0.00 | 0.00 | 0.00 | 96 | 1015.6 |
| 20260508154517 | 64 | 38 | 0.0 | 0.0 | 0.00 | 0.00 | 0.00 | 95 | 1015.7 |
| 20260508154013 | 64 | 9 | 0.0 | 0.0 | 0.00 | 0.00 | 0.00 | 95 | 1015.6 |
| 20260508153510 | 64 | 20 | 0.0 | 0.0 | 0.00 | 0.00 | 0.00 | 94 | 1015.2 |
| 20260508153006 | 64 | 4 | 1.0 | 1.0 | 0.00 | 0.00 | 0.00 | 93 | 1014.8 |
| 20260508152503 | 64 | 67 | 1.0 | 2.0 | 0.00 | 0.00 | 0.00 | 93 | 1015.0 |
| 20260508151959 | 64 | 87 | 1.0 | 1.0 | 0.00 | 0.00 | 0.00 | 93 | 1015.1 |
| 20260508151456 | 64 | 13 | 1.0 | 1.0 | 0.00 | 0.00 | 0.00 | 93 | 1015.1 |
| 20260508150952 | 64 | 350 | 3.0 | 3.0 | 0.00 | 0.00 | 0.00 | 92 | 1015.4 |
| 20260508150449 | 64 | 33 | 0.0 | 0.0 | 0.00 | 0.00 | 0.00 | 92 | 1015.2 |
| 20260508145945 | 64 | 77 | 1.0 | 2.0 | 0.00 | 0.00 | 0.00 | 91 | 1014.9 |
| 20260508145442 | 64 | 52 | 0.0 | 0.0 | 0.00 | 0.00 | 0.00 | 91 | 1014.8 |
| 20260508144938 | 64 | 65 | 0.0 | 0.0 | 0.00 | 0.00 | 0.00 | 91 | 1015.2 |
| 20260508144436 | 65 | 357 | 1.0 | 1.0 | 0.00 | 0.00 | 0.00 | 90 | 1015.0 |
| 20260508143934 | 65 | 58 | 0.0 | 1.0 | 0.00 | 0.00 | 0.00 | 90 | 1014.9 |
| 20260508143431 | 65 | 45 | 4.0 | 5.0 | 0.00 | 0.00 | 0.00 | 89 | 1015.0 |
| 20260508142927 | 65 | 48 | 1.0 | 2.0 | 0.00 | 0.00 | 0.00 | 90 | 1015.1 |
| 20260508142425 | 65 | 348 | 1.0 | 2.0 | 0.00 | 0.00 | 0.00 | 89 | 1015.3 |
| 20260508141921 | 65 | 343 | 2.0 | 2.0 | 0.00 | 0.00 | 0.00 | 90 | 1015.4 |
| 20260508141417 | 65 | 68 | 1.0 | 2.0 | 0.00 | 0.00 | 0.00 | 91 | 1015.7 |
| 20260508140915 | 65 | 56 | 1.0 | 2.0 | 0.00 | 0.00 | 0.00 | 91 | 1015.2 |
| 20260508140412 | 65 | 32 | 2.0 | 3.0 | 0.00 | 0.00 | 0.00 | 91 | 1015.2 |
| 20260508135907 | 64 | 34 | 3.0 | 3.0 | 0.00 | 0.00 | 0.00 | 92 | 1015.2 |
| 20260508135405 | 64 | 343 | 0.0 | 1.0 | 0.00 | 0.00 | 0.00 | 93 | 1015.2 |
| 20260508134901 | 64 | 347 | 3.0 | 3.0 | 0.00 | 0.00 | 0.00 | 93 | 1015.3 |
| 20260508134357 | 64 | 55 | 1.0 | 1.0 | 0.00 | 0.00 | 0.00 | 94 | 1015.5 |
| 20260508133854 | 64 | 26 | 2.0 | 5.0 | 0.00 | 0.00 | 0.00 | 95 | 1015.2 |
| 20260508133352 | 64 | 58 | 1.0 | 1.0 | 0.00 | 0.00 | 0.00 | 97 | 1015.3 |
| 20260508132849 | 63 | 0 | 1.0 | 2.0 | 0.00 | 0.00 | 0.00 | 98 | 1015.3 |